This demonstration page uses our WeatherBlox Daily Observations layout. Learn more.

Left ArrowRight Arrow

39.12711, -84.51439

Hourly Observations for June 19, 2018

Temp ( °F °C ) Dew Point ( °F °C ) Humidity (%) Winds ( mph kmh ) Pressure ( in mb ) Visibility ( mi km ) Precip ( " mm )
12:53 am 00:53 Clear 80 26.7 74 23.3 82 82 SW 5 7 29.99 1016 10 16 N/A
1:53 am 01:53 Clear 79 26.1 74 23.3 85 85 SW 5 7 29.98 1015 10 16 N/A
2:53 am 02:53 Clear 77 25 74 23.3 90 90 SSW 6 9 29.98 1015 10 16 N/A
3:53 am 03:53 Clear 79 26.1 74 23.3 85 85 SW 6 9 29.96 1015 9 14 N/A
4:53 am 04:53 Clear 78 25.6 74 23.3 87 87 WSW 7 11 29.97 1015 10 16 N/A
5:53 am 05:53 Clear 78 25.6 73 22.8 85 85 WSW 6 9 29.98 1015 10 16 N/A
6:53 am 06:53 Partly Cloudy 77 25 73 22.8 88 88 N N/A 29.99 1016 9 14 N/A
7:53 am 07:53 Mostly Sunny 80 26.7 75 23.9 85 85 SW 7 11 29.99 1016 9 14 N/A
8:53 am 08:53 Mostly Sunny 83 28.3 74 23.3 74 74 VRB 7 11 29.99 1016 10 16 N/A
9:53 am 09:53 Sunny 85 29.4 75 23.9 72 72 VRB 6 9 29.98 1015 10 16 N/A
10:53 am 10:53 Partly Cloudy 87 30.6 76 24.4 70 70 WSW 8 13 29.97 1015 10 16 N/A
11:53 am 11:53 Partly Cloudy 89 31.7 75 23.9 63 63 W 10 17 29.96 1015 10 16 N/A
12:53 pm 12:53 Partly Cloudy 90 32.2 76 24.4 63 63 W 13 20 29.95 1014 10 16 N/A
1:53 pm 13:53 Partly Cloudy 90 32.2 74 23.3 59 59 WSW 13 20 29.91 1013 10 16 N/A
2:53 pm 14:53 Partly Cloudy 92 33.3 73 22.8 54 54 W 16 26 29.89 1012 10 16 N/A
3:53 pm 15:53 Partly Cloudy 93 33.9 73 22.8 52 52 W 17 28 29.88 1012 10 16 N/A
4:53 pm 16:53 Mostly Cloudy 93 33.9 72 22.2 50 50 WSW 12 19 29.88 1012 10 16 N/A
5:53 pm 17:53 Mostly Sunny 85 29.4 74 23.3 70 70 ENE 9 15 29.89 1012 10 16 N/A
6:53 pm 18:53 Mostly Cloudy 85 29.4 74 23.3 70 70 N N/A 29.88 1012 10 16 N/A
7:53 pm 19:53 Mostly Cloudy 84 28.9 75 23.9 74 74 N 20 31 29.90 1012 10 16 N/A
8:17 pm 20:17 Cloudy with Thunderstorms 81 27.2 71 21.7 72 72 NNE 9 15 29.91 1013 10 16 N/A
8:49 pm 20:49 Cloudy with Light Rain 77 25 72 22 83 83 ENE 7 11 29.91 1013 10 16 N/A
8:53 pm 20:53 Cloudy with Light Rain 76 24.4 72 22.2 88 88 ENE 8 13 29.91 1013 8 13 N/A
9:53 pm 21:53 Partly Cloudy 74 23.3 72 22.2 94 94 ENE 5 7 29.92 1013 10 16 0.01 0.25
10:53 pm 22:53 Mostly Clear 73 22.8 71 21.7 94 94 SE 6 9 29.93 1014 10 16 N/A
11:53 pm 23:53 Mostly Cloudy 73 22.8 72 22.2 96 96 S 5 7 29.93 1013 10 16 N/A

Powered by AerisWeather